Geely Xingzuo 05 zu 02 xing

operational
NORAD ID: 65551 Int'l Des: 2025-201 Owner: GEESP Country: CN Constellation: geesatcom
LEOCIRCULAR

About Geely Xingzuo 05 zu 02 xing

Description loading...

Live Position

Loading 3D Globe...

Upcoming Passes

Altitude History

Altitude vs Time

uPlot chart will show altitude changes over time

Two-Line Element Set

1 65551U 25201B 25312.78619255 .00004594 00000-0 53882-3 0 9999
2 65551 49.9867 341.5137 0010814 208.9191 151.1150 14.86517444 9068
Epoch: Nov 8, 2025 • Age: 36 hours

Current Status

Altitude 604.1 km
Velocity 7.56 km/s
Sub-Earth Point 14.55°N, 13.98°W
Launch Date Sep 8, 2025
Age 0.1 years
Type other

Technical Details

Classification Payload
Mass 130.00 kg
Dry Mass 130.00 kg
Total Mass 130.00 kg
Length 1.00 m
Diameter 0.50 m
Span 2.00 m
Shape Box + 2 pan
Manufacturer GWCG
Bus Type GPS100
Phase Status In Orbit
Owner/State GEESP/CN

Large Constellations

Loading constellations...